Wind_Speed
4 4 4 4 4 4 4 4 4 3 2 2 1 0 1 2 3 4 5 5 5 6 5 6 7 7 8 7 8 9 9 10 10 10 9 9 9 11 14 15 16 15 15 15 15 15 16 16 16 16 15 14 14 14 14 14 15 16 16 17 17 16 17 17 17 18 18 18 19 18 17 16 16 15 14 13 13 13 15 16 17 16 16 17 17
5 5 4 4 4 4 4 3 3 3 2 1 0 1 2 2 3 4 5 5 5 6 6 7 7 7 8 8 8 9 10 11 10 10 10 9 9 11 13 14 15 15 14 14 14 14 14 15 14 14 14 14 13 14 15 15 15 16 16 16 17 16 16 17 17 17 17 17 18 19 19 18 17 16 16 15 14 14 14 15 16 17 17 18 18
7 6 5 4 4 4 4 3 3 2 2 2 1 1 2 2 3 4 5 5 6 8 8 7 7 7 8 8 9 9 10 11 10 10 10 9 8 10 12 13 14 14 14 14 14 13 13 14 14 13 13 13 13 14 15 15 16 16 15 15 16 17 17 16 16 16 16 16 17 18 19 19 19 18 17 16 16 15 15 15 16 17 17 18 19
7 6 5 4 4 4 4 3 3 3 2 2 2 2 2 2 3 3 5 7 8 9 9 8 7 7 7 8 10 10 9 9 9 8 9 8 8 9 10 12 14 13 13 13 14 14 14 14 14 14 13 13 13 13 13 13 14 15 14 15 16 17 17 17 16 15 16 16 17 17 18 20 20 20 20 18 18 17 16 15 15 16 17 19 20
7 6 5 4 4 4 4 4 4 3 3 2 2 2 3 3 3 4 5 7 9 9 9 8 8 8 8 8 9 9 8 8 8 7 7 7 8 8 8 9 11 11 13 14 14 14 15 14 14 15 15 15 14 12 12 12 12 13 13 14 15 15 16 17 16 15 16 16 17 17 18 20 21 22 22 22 21 20 18 16 15 15 16 18 20
7 6 5 5 4 4 4 4 4 3 3 2 1 2 3 3 4 5 5 6 8 9 8 8 7 7 8 8 8 8 7 7 7 7 6 7 7 8 8 8 9 10 12 14 15 14 14 14 14 15 15 16 16 15 15 14 15 15 16 15 15 15 15 16 15 15 15 16 17 17 17 19 21 22 23 24 24 23 20 18 17 16 15 17 19
7 6 6 5 4 4 4 4 4 3 3 2 2 2 3 3 3 3 4 5 7 9 8 8 7 7 8 7 6 6 6 6 5 5 6 6 7 8 9 9 10 10 10 11 14 14 14 15 15 16 17 17 18 18 18 18 18 19 20 20 19 18 17 16 14 14 15 15 16 17 18 19 21 22 23 25 26 26 24 21 19 18 16 15 18
7 6 6 5 4 5 5 4 3 3 2 1 2 2 3 4 3 3 4 5 7 8 8 7 7 7 8 6 5 5 5 5 5 5 6 6 7 9 9 9 10 10 10 10 11 14 15 16 17 17 18 18 19 20 20 21 20 21 22 22 22 21 20 18 15 14 14 14 14 15 17 19 20 22 23 24 25 26 26 24 22 20 18 15 16
7 7 6 5 5 5 4 4 3 2 1 1 1 2 3 4 4 4 5 6 7 7 7 7 6 6 6 4 4 5 4 4 5 5 5 5 8 9 10 11 11 11 13 12 12 14 17 17 18 19 19 20 21 22 22 23 22 22 22 23 23 23 22 20 18 16 15 15 15 15 17 19 20 21 21 22 24 24 26 27 25 23 20 16 15
8 7 6 5 5 4 4 4 3 2 1 1 1 2 3 4 4 5 7 7 7 7 7 7 6 4 3 3 4 3 3 4 4 4 4 7 9 10 13 14 15 14 15 16 16 17 19 19 19 20 21 21 22 22 23 23 23 23 23 23 24 25 24 22 21 20 19 18 17 17 19 20 20 20 20 21 23 23 26 29 27 25 23 20 16
9 7 6 5 5 4 4 4 3 2 1 1 1 2 3 4 4 6 8 8 8 9 8 7 7 5 2 3 3 2 2 4 4 4 6 9 11 13 15 16 16 16 16 16 17 17 18 18 18 18 19 20 20 21 22 23 24 24 24 24 24 25 25 25 24 23 21 21 21 21 22 22 21 21 20 21 22 23 25 28 27 25 24 23 18
8 7 7 6 5 5 4 3 2 2 1 1 2 3 5 5 5 6 8 9 9 9 8 7 6 4 2 2 2 3 3 4 4 5 8 10 12 13 13 14 14 14 14 15 15 15 16 16 16 16 17 18 18 19 20 21 23 24 25 25 25 26 26 26 26 25 24 23 23 23 24 23 22 22 21 21 21 21 22 24 25 25 25 24 21
8 8 8 6 6 5 4 3 2 1 0 2 3 5 6 6 6 6 8 8 8 8 8 7 4 2 2 2 3 4 3 4 4 7 10 10 11 13 13 14 14 14 14 15 16 16 16 15 16 16 16 16 17 17 18 20 21 21 23 25 25 26 27 27 27 27 27 26 25 24 24 24 24 25 24 22 21 20 20 21 23 26 27 27 25
9 9 8 6 5 4 3 3 1 0 2 3 4 5 6 6 5 6 7 8 8 8 8 6 3 3 5 5 3 2 4 6 7 7 8 11 13 14 15 15 14 14 15 15 17 17 18 18 18 18 17 17 16 16 16 17 18 19 21 22 23 24 26 27 28 28 29 29 28 27 25 24 25 26 26 25 24 22 22 23 24 25 26 28 29
9 9 7 6 5 4 3 2 1 1 2 3 4 5 5 5 5 5 6 8 9 8 7 5 6 6 5 5 5 4 4 5 7 9 12 13 13 14 13 13 13 13 14 15 16 17 18 19 20 20 20 20 19 19 18 18 18 18 19 20 21 22 23 25 26 28 29 30 30 30 29 28 26 26 26 26 26 25 24 24 24 24 25 28 30
9 8 7 6 5 4 3 1 1 2 2 2 3 4 4 4 5 5 6 7 8 7 7 8 9 8 5 3 3 3 4 5 4 7 12 13 14 14 13 14 14 15 16 16 17 18 19 20 21 22 22 22 23 22 22 22 22 21 21 21 20 20 21 22 24 26 28 29 30 30 30 30 29 28 27 25 26 28 27 27 25 24 26 26 27
8 7 6 5 4 3 2 0 2 2 2 2 2 3 4 4 5 6 6 6 6 7 9 10 11 10 8 6 4 3 4 4 4 4 9 15 16 15 15 16 17 18 18 20 21 22 22 23 24 24 24 25 25 25 25 25 25 25 24 24 23 22 22 22 22 23 25 27 28 29 30 30 31 30 28 26 26 28 30 30 28 26 26 25 25
8 6 5 5 4 2 0 2 2 2 1 2 3 3 4 5 5 6 6 5 7 9 10 11 12 13 13 11 8 7 7 5 4 4 5 13 16 14 15 17 19 19 20 21 21 22 23 23 23 23 24 25 25 25 26 26 26 26 26 26 26 25 24 23 23 22 23 24 26 27 29 30 31 30 29 27 27 27 29 31 30 28 27 25 25
7 7 5 4 2 0 1 2 1 1 2 3 4 4 5 5 5 5 5 6 8 10 11 12 12 13 14 14 13 13 12 10 6 5 3 7 12 13 15 18 19 19 19 20 20 21 22 21 22 23 24 25 26 26 26 26 26 26 26 26 26 26 25 25 25 24 23 23 24 25 27 28 29 30 29 28 28 28 28 29 30 29 28 27 25
7 6 4 2 1 1 1 1 2 3 4 4 5 5 5 5 5 5 6 8 10 11 12 12 13 14 14 14 15 16 16 15 13 9 5 4 7 10 14 18 19 18 18 19 22 24 24 24 24 25 26 27 27 27 27 26 26 27 27 27 27 26 26 26 27 27 26 25 24 24 25 26 27 28 29 30 30 30 29 29 30 30 29 28 27
5 3 2 1 1 1 2 3 4 5 5 5 5 4 5 5 5 6 7 9 11 11 12 13 13 14 15 15 16 17 17 17 17 15 9 6 6 6 8 11 14 17 21 23 24 26 26 26 28 28 29 29 28 28 27 26 26 27 28 27 27 26 26 27 27 27 28 27 26 25 25 26 27 28 29 30 31 31 30 29 30 30 30 29 29
4 2 1 1 0 3 4 5 5 6 6 6 5 5 5 6 6 8 9 11 12 12 12 14 15 15 16 16 17 17 17 17 17 17 13 9 7 6 5 5 6 13 21 24 21 19 20 21 23 24 26 28 29 30 28 28 29 29 28 27 25 24 24 25 26 27 28 28 27 27 27 26 27 28 29 30 31 31 31 29 29 30 32 30 29
3 1 1 1 3 5 6 6 7 7 6 6 5 6 6 7 8 9 10 12 13 13 14 15 15 16 16 17 17 17 17 18 19 18 15 11 8 7 7 5 5 9 16 18 15 14 16 17 17 19 22 26 29 31 31 31 32 32 31 29 27 25 24 24 25 26 27 28 28 28 28 27 28 28 29 30 31 32 32 30 28 29 32 32 31
2 1 2 4 6 8 8 8 7 7 6 6 6 6 7 8 10 11 12 13 13 14 14 16 16 16 17 17 17 18 18 19 20 19 19 16 11 8 8 7 6 7 10 13 12 12 16 18 19 20 22 26 29 32 34 33 34 35 34 32 31 30 29 29 27 26 25 26 27 28 29 29 28 28 29 30 32 32 32 31 29 28 30 32 33
1 2 5 8 9 9 9 9 8 7 6 6 6 7 9 10 11 12 13 14 14 15 15 15 16 16 17 17 18 18 19 19 20 20 21 20 16 11 9 8 8 7 8 11 13 14 16 18 21 23 24 27 31 32 34 34 35 37 35 34 34 33 32 33 31 29 27 26 26 27 28 30 30 30 30 30 32 33 33 32 30 28 28 31 34
2 4 8 10 10 10 10 9 8 7 7 6 7 9 10 11 12 13 15 15 15 15 16 16 16 17 17 18 18 18 19 20 20 21 22 23 23 17 10 7 8 9 8 11 15 18 20 17 19 26 28 29 33 34 34 35 35 36 36 36 36 33 33 34 32 31 32 31 28 27 27 28 30 31 30 30 32 33 33 33 32 31 29 29 32
4 8 10 11 11 11 10 8 8 7 7 7 8 10 11 12 13 14 15 16 16 16 16 16 16 17 18 18 18 19 20 20 20 22 23 25 26 24 17 10 9 10 10 11 14 19 23 19 19 27 32 32 34 34 34 35 35 35 35 36 36 34 33 33 31 32 34 33 32 32 31 30 29 30 30 30 29 31 32 32 33 33 32 30 30
8 11 12 12 11 11 10 9 8 7 7 8 10 11 12 12 14 15 16 16 16 17 17 16 16 17 18 18 19 20 20 21 22 23 25 27 27 26 25 19 14 12 11 13 16 19 24 24 23 28 33 33 33 34 34 35 35 35 35 36 37 35 32 30 30 32 33 33 34 36 37 35 32 29 29 30 29 29 30 30 31 32 33 32 30
10 13 13 13 12 11 10 9 8 8 8 10 11 12 13 14 15 16 17 17 17 17 17 16 17 17 18 19 20 21 21 22 24 25 26 27 27 27 27 26 21 16 13 14 17 21 26 28 28 30 33 33 34 35 36 36 36 36 37 38 38 35 32 30 31 32 32 32 35 38 39 37 33 29 28 29 30 29 28 28 29 30 31 33 32
12 13 13 13 12 11 10 9 8 9 10 11 13 13 13 15 16 16 17 17 17 17 17 17 17 18 19 20 21 21 22 24 24 25 26 27 26 26 27 27 25 22 17 12 13 20 25 26 28 31 33 34 36 37 38 38 37 37 39 40 35 32 30 29 30 32 32 33 36 39 39 38 35 31 28 26 27 28 28 28 29 30 30 32 34
12 13 13 13 12 11 10 9 9 9 11 13 14 14 15 16 17 17 17 17 17 17 17 17 18 19 19 20 21 22 23 24 25 25 26 26 26 26 26 26 25 25 21 13 11 16 21 23 26 29 33 36 37 39 40 39 38 38 40 38 32 29 28 27 29 31 32 34 37 40 40 39 38 35 31 27 25 25 26 27 29 30 32 32 33
12 13 13 13 12 11 10 10 10 11 13 14 15 15 16 17 17 18 17 16 17 17 17 17 19 20 20 21 21 22 23 24 24 24 25 25 25 25 25 24 24 25 24 18 12 14 18 21 23 24 30 36 35 35 38 41 40 39 38 34 31 29 26 27 29 30 31 34 38 41 41 41 39 37 33 30 26 25 25 26 27 29 31 33 33
13 13 13 13 12 11 11 11 11 13 14 15 16 16 17 17 18 18 17 17 17 17 17 18 19 21 21 21 21 22 23 23 23 23 24 24 24 23 23 23 24 24 25 22 16 15 19 23 24 24 29 34 31 29 34 40 43 42 36 31 30 28 26 27 29 28 29 34 39 41 41 41 39 36 33 32 30 28 26 25 26 27 29 32 34
13 13 13 14 13 12 12 12 13 15 15 16 17 17 17 17 18 18 17 17 17 17 18 19 20 21 21 21 21 22 23 23 22 22 23 23 22 22 23 23 23 23 25 24 19 17 19 22 25 26 29 33 30 26 30 38 44 43 36 31 30 29 27 28 29 27 28 35 40 40 40 40 38 35 33 33 31 29 26 25 24 25 26 29 32
14 14 13 13 13 13 12 13 15 16 17 17 18 17 17 17 17 18 18 17 17 18 20 20 20 20 21 21 21 22 22 21 22 21 21 21 21 21 22 22 23 23 24 24 20 17 18 20 22 24 27 31 29 26 30 36 42 43 39 33 30 29 28 29 29 28 30 35 39 40 40 38 36 34 33 31 28 26 25 25 24 23 24 26 29
14 14 15 14 13 14 13 14 16 17 18 18 18 18 18 17 17 18 18 18 18 19 20 20 20 20 20 21 21 21 21 20 21 20 19 20 20 21 21 20 21 22 22 20 19 17 16 18 20 22 24 27 29 29 31 36 40 42 42 37 30 28 29 29 28 28 30 34 36 38 39 36 34 33 31 28 26 26 26 26 25 24 22 22 24
14 15 16 14 14 14 14 15 17 18 19 19 18 18 18 18 18 18 18 18 19 19 19 19 20 20 19 20 20 19 19 19 19 18 17 18 20 20 20 19 19 21 20 19 20 18 15 16 19 21 22 25 29 31 34 37 39 40 43 41 32 26 28 30 28 29 30 31 33 36 36 33 31 31 29 26 26 26 26 25 24 25 24 22 21
14 15 16 15 15 15 15 17 18 19 19 19 18 18 18 18 18 18 18 19 19 20 20 19 20 20 19 19 18 18 18 18 17 16 16 18 19 20 20 20 20 21 21 21 21 18 16 16 18 21 22 25 29 32 36 39 39 39 42 43 35 28 29 30 30 30 30 31 32 33 33 33 32 29 27 26 26 28 29 27 25 27 28 27 25
14 15 17 16 16 16 16 18 19 19 20 19 18 18 18 18 18 18 18 19 19 20 20 20 19 19 18 17 17 16 16 16 15 15 16 18 19 19 20 21 21 22 21 21 21 18 15 16 18 20 21 24 29 32 35 39 40 40 40 38 33 31 31 31 31 31 31 32 33 32 33 35 33 28 27 27 27 30 30 26 25 28 32 34 32
15 16 17 16 17 17 17 19 20 20 20 19 19 19 18 19 18 18 19 19 19 19 19 19 19 18 17 16 16 15 15 14 14 15 16 17 18 18 19 20 21 23 22 20 19 18 16 16 18 19 21 24 28 33 37 40 42 41 38 32 29 30 32 31 31 31 32 34 35 33 31 33 32 30 29 27 26 28 26 23 27 33 36 38 36
16 17 17 16 17 17 19 20 21 21 20 20 20 19 19 19 19 19 19 19 19 19 18 18 18 17 16 15 14 14 13 13 14 14 15 17 17 17 18 19 20 22 23 21 19 18 16 16 18 19 21 23 27 32 37 41 41 40 36 31 27 28 30 31 30 30 33 35 34 33 31 30 32 31 28 27 26 27 27 27 33 37 36 36 36
17 18 17 17 17 18 20 21 22 22 21 20 20 20 20 20 20 20 19 19 18 18 17 17 17 15 14 13 13 12 12 13 13 14 15 16 17 17 17 19 20 22 24 23 22 20 17 16 18 19 21 23 25 29 35 39 41 39 35 31 29 28 29 31 31 30 34 36 35 33 29 27 29 29 25 27 27 26 29 34 34 33 32 32 32
18 19 18 18 18 18 21 22 22 22 21 20 19 19 20 21 21 20 19 18 18 17 17 16 15 14 13 12 12 11 11 12 13 13 14 15 16 17 17 19 20 21 23 23 23 23 19 16 17 19 21 22 23 27 33 38 41 41 36 31 30 30 30 32 33 31 36 39 37 34 29 26 27 27 22 26 30 28 31 36 33 28 27 28 29
19 19 19 19 19 20 22 23 23 22 21 20 19 19 19 21 21 20 19 18 18 16 16 16 14 13 12 11 10 10 9 10 11 12 13 14 15 15 17 18 19 20 21 22 23 23 22 17 16 18 20 22 23 27 33 37 39 40 38 34 32 30 28 30 31 31 36 41 40 35 30 28 29 27 23 26 34 34 35 35 31 27 25 26 27
20 20 20 19 19 20 22 24 23 23 22 21 21 21 21 21 21 20 18 18 17 16 16 16 14 14 12 10 9 8 8 9 10 10 11 12 13 15 17 18 19 20 20 21 22 23 23 20 17 18 20 22 23 27 32 35 37 39 38 35 32 28 26 27 29 31 33 39 43 36 29 30 33 32 29 31 37 40 41 39 33 28 26 25 27
21 21 20 19 19 20 22 24 24 23 22 22 22 23 22 21 21 20 18 18 17 16 16 15 14 14 12 11 9 8 7 7 8 9 9 10 12 14 15 15 17 19 21 21 22 22 23 22 20 20 21 22 23 26 30 32 35 36 34 32 31 27 25 24 27 30 28 35 46 39 27 28 33 35 37 38 41 45 45 43 37 30 28 27 27
22 22 21 20 20 21 23 24 24 23 22 22 22 23 23 21 21 20 19 18 17 16 16 15 14 13 12 10 9 8 7 6 7 7 8 9 11 13 14 14 15 17 19 20 20 22 22 22 22 22 22 23 23 25 28 29 33 34 29 27 28 26 23 22 25 28 24 31 47 42 27 29 32 34 40 43 44 47 46 45 44 37 32 30 29
23 22 21 21 21 23 24 24 23 22 21 21 21 22 22 21 20 19 18 18 17 16 15 14 14 13 11 10 9 8 7 6 6 6 7 8 10 11 12 12 13 13 15 18 19 21 21 21 22 22 23 24 24 26 28 27 31 33 28 24 26 25 23 23 26 28 24 30 45 39 27 30 31 32 41 46 45 48 49 47 48 44 39 36 32
25 24 23 23 23 24 24 23 22 21 21 21 21 22 22 21 21 19 17 16 16 16 15 14 13 12 11 10 10 9 7 5 5 5 5 6 8 9 10 11 11 12 14 17 18 20 20 19 20 20 20 23 25 27 28 27 29 31 28 26 26 24 23 24 26 28 24 29 42 37 25 28 30 31 41 48 45 46 49 49 50 49 46 43 37
27 26 26 25 25 24 23 22 21 20 20 20 20 21 22 21 21 19 16 15 16 15 14 14 13 12 10 10 9 8 7 5 4 4 4 5 6 8 9 11 12 13 15 17 18 19 19 18 20 20 20 23 24 26 28 27 29 29 26 26 26 23 23 23 25 27 24 27 41 39 25 27 33 33 38 45 47 48 49 50 51 52 51 48 44
27 26 25 24 23 23 22 22 21 19 19 19 20 21 21 21 22 19 14 13 15 15 13 13 12 11 10 9 8 7 7 5 3 2 2 4 5 7 9 10 11 13 15 16 17 19 19 20 20 20 19 21 21 21 23 25 27 28 26 24 24 22 22 22 23 25 24 27 39 40 28 29 38 37 32 34 39 46 51 51 51 53 53 51 49
Wind_Direction
171 167 170 168 172 179 180 183 174 179 201 178 169 268 7 322 331 339 331 331 324 327 332 333 338 331 332 335 329 325 325 326 325 326 326 322 317 310 317 323 324 326 327 326 325 322 319 317 316 314 312 310 308 309 307 305 305 305 304 305 306 302 295 291 289 287 285 282 280 283 289 293 297 300 300 299 297 290 280 272 267 261 253 246 239
184 179 183 187 189 207 214 201 195 196 191 177 155 71 41 355 350 342 329 334 328 332 344 344 342 331 333 336 332 335 335 335 337 338 334 332 328 318 322 328 327 327 328 328 328 326 325 320 318 317 317 315 312 312 309 308 309 307 305 306 307 305 301 294 290 286 283 280 277 277 280 286 292 296 298 299 299 298 292 281 272 264 255 246 241
187 183 190 204 213 225 228 209 210 212 185 170 125 89 53 17 359 343 334 338 335 342 349 345 341 336 340 341 340 347 344 342 343 341 338 340 340 332 333 333 328 328 329 329 329 328 326 321 317 317 320 319 317 318 315 314 313 310 310 310 308 308 306 300 294 289 284 281 277 275 276 280 285 288 292 297 299 297 295 290 279 267 257 249 243
188 189 195 210 225 234 233 213 206 203 185 162 124 95 58 38 9 357 348 344 344 347 348 345 346 342 346 347 345 350 348 343 347 346 342 341 341 339 337 333 328 329 329 328 328 325 321 318 314 313 316 318 321 323 322 323 320 318 317 312 309 310 308 304 300 294 288 282 279 279 277 275 276 279 283 289 295 296 293 291 287 275 261 252 246
194 195 198 212 229 233 228 207 197 190 177 155 122 79 56 40 15 10 359 352 345 345 348 346 346 345 347 353 351 349 347 347 349 343 334 330 329 331 335 335 332 332 329 326 324 320 318 318 316 313 313 314 317 318 319 323 325 325 323 315 312 312 312 310 305 298 292 286 283 283 280 275 273 275 278 281 287 291 290 289 290 285 270 256 248
198 199 203 216 224 216 208 197 190 180 166 151 108 61 48 31 22 14 358 356 345 342 347 341 346 350 346 355 357 349 349 353 348 338 332 327 323 324 327 327 328 330 330 326 323 319 318 318 315 312 312 312 312 310 308 308 308 309 311 311 310 307 309 313 314 306 298 292 288 285 282 279 277 276 274 274 277 281 286 288 290 291 282 264 251
198 203 208 208 199 189 189 187 178 166 166 147 86 50 25 2 10 16 356 351 345 341 341 337 342 344 341 352 2 0 7 11 5 6 11 356 336 329 326 323 322 323 326 327 324 320 318 316 313 311 309 309 308 308 306 303 302 301 303 304 304 302 301 306 315 313 305 300 295 288 283 281 280 277 273 271 270 274 280 283 284 288 287 275 256
199 206 206 190 174 178 180 177 168 157 162 109 67 23 356 342 344 11 0 345 343 341 339 339 340 339 343 354 9 20 29 35 34 35 34 13 342 332 328 324 323 322 321 322 321 319 318 316 312 310 309 308 306 305 303 301 301 301 302 302 300 300 299 297 301 303 301 298 295 292 286 281 279 278 276 274 271 272 275 274 275 280 282 282 266
198 202 196 179 178 185 178 170 164 151 136 58 40 358 353 346 346 357 357 352 351 352 352 348 344 345 343 358 38 41 36 45 46 40 26 352 331 328 327 323 322 321 317 315 312 311 313 313 310 309 307 306 305 303 301 300 299 298 299 300 299 299 298 294 289 288 289 287 286 285 282 279 278 277 278 278 274 273 273 271 271 273 275 279 275
194 195 184 183 192 190 176 165 158 146 125 298 311 0 1 356 353 345 353 5 5 4 8 357 358 8 355 15 53 58 42 47 47 29 350 331 328 326 323 320 318 316 314 312 308 306 307 308 307 306 304 302 300 298 297 297 297 297 297 298 298 298 298 295 289 284 280 279 279 278 277 279 278 278 277 276 275 273 272 271 271 271 272 272 275
190 189 183 183 189 189 176 160 153 150 167 298 348 17 3 356 354 343 350 3 7 8 9 3 5 21 53 67 70 94 73 53 45 6 330 325 327 323 319 319 318 318 317 313 312 311 310 310 309 307 305 303 301 298 297 296 295 296 296 295 295 296 297 296 295 290 284 277 275 274 276 280 281 280 278 275 275 273 271 271 271 270 273 272 270
189 190 187 179 182 188 174 157 162 167 200 313 356 0 346 341 343 348 353 359 9 10 4 11 19 24 76 100 66 67 69 61 36 334 323 323 322 323 325 327 328 328 328 327 328 327 326 324 321 318 315 312 309 306 303 300 298 297 296 295 294 294 294 294 295 295 293 287 281 278 276 278 280 280 280 278 276 274 273 273 271 268 265 267 264
187 190 187 185 189 184 163 157 167 168 285 329 340 338 334 334 338 352 1 3 11 11 4 20 43 67 114 99 30 29 48 44 7 327 326 334 340 343 345 346 348 349 349 348 348 346 345 343 340 337 334 330 325 321 316 311 308 305 300 298 296 294 293 292 292 293 294 293 291 288 282 278 278 278 278 278 277 274 271 270 270 264 255 256 262
182 186 182 182 184 168 160 164 149 73 326 324 327 327 329 335 345 357 6 7 12 13 10 25 64 133 156 152 121 60 40 21 4 0 0 358 0 357 355 359 0 2 4 2 359 358 359 359 358 355 352 350 346 340 335 328 323 318 311 307 304 301 298 295 294 292 291 291 291 291 288 283 279 278 278 276 276 275 271 267 267 266 259 254 258
180 181 176 174 171 162 166 167 111 11 339 326 324 331 336 347 8 14 13 13 14 16 22 49 85 114 146 159 161 160 104 55 16 14 17 11 9 7 9 14 15 17 17 14 13 10 9 8 5 4 2 1 360 356 351 345 339 333 325 319 315 309 305 301 298 295 292 291 290 289 290 288 284 280 278 276 275 274 272 269 266 266 263 258 255
180 177 175 175 176 173 169 164 10 354 341 336 336 347 0 10 22 27 29 23 20 28 47 67 83 103 132 147 142 141 105 91 64 22 15 16 21 22 27 32 31 32 29 25 23 19 16 14 10 8 6 4 3 360 357 353 348 345 339 333 328 321 314 308 303 300 297 295 293 291 289 288 287 284 282 279 275 273 271 268 266 264 262 262 258
182 178 179 183 185 183 175 308 350 357 346 4 19 21 25 29 28 30 36 37 43 59 69 73 78 89 112 132 118 85 76 91 114 87 25 18 25 29 31 34 33 31 29 26 23 20 17 14 12 11 9 7 5 1 359 356 352 349 345 341 338 333 326 320 313 308 304 301 298 296 293 289 287 285 284 281 276 273 270 268 267 265 263 263 259
185 182 185 191 187 185 268 343 347 2 19 47 51 45 42 39 35 35 39 53 73 80 76 74 74 78 91 104 104 95 94 99 119 127 48 21 23 30 32 33 33 32 32 29 25 23 22 19 16 15 13 10 6 4 1 358 354 351 348 345 342 339 333 328 324 320 314 309 305 301 298 294 291 288 284 281 276 272 271 270 268 266 264 263 260
187 185 190 194 177 160 354 354 354 55 68 71 66 57 54 45 41 47 56 75 87 87 82 78 76 76 81 88 89 84 83 92 102 128 116 36 26 33 40 42 39 38 40 39 35 33 29 26 23 21 19 14 9 7 4 1 358 354 351 347 343 339 334 331 329 327 323 317 313 307 303 300 296 293 288 282 275 270 268 269 269 267 265 265 263
190 188 187 185 75 13 37 120 114 102 91 82 75 64 59 50 50 63 77 89 89 87 87 84 82 80 79 80 79 75 74 80 86 96 121 81 42 41 50 53 49 47 50 48 42 40 36 32 30 27 23 18 13 10 7 3 360 357 354 348 343 340 336 334 331 328 325 321 317 312 308 305 300 297 292 286 279 272 266 265 267 267 267 266 265
196 191 190 293 8 73 131 132 114 103 98 88 81 71 63 60 69 84 91 93 90 89 89 88 85 83 83 82 77 73 69 68 72 80 95 95 68 49 50 53 46 41 45 46 40 35 32 28 29 28 24 21 17 14 10 6 3 2 357 350 346 345 341 337 333 329 326 323 319 314 311 307 303 299 294 290 286 281 273 265 262 263 265 265 264
197 187 213 287 155 150 138 125 112 105 100 91 83 73 72 80 92 98 99 96 93 91 90 87 86 86 86 86 81 76 71 68 69 71 76 78 64 47 41 39 28 22 28 36 35 26 20 17 19 20 17 16 17 16 13 10 9 5 358 353 351 349 346 341 336 331 328 324 320 316 312 308 304 301 297 294 290 287 282 273 264 260 260 261 260
187 184 229 205 157 148 133 120 111 106 98 90 86 81 89 102 105 105 102 99 95 92 91 90 89 88 85 83 81 79 77 75 73 71 72 74 62 42 35 34 32 18 17 25 29 20 13 11 12 11 8 10 13 14 14 13 11 7 1 358 353 351 350 346 341 336 331 326 321 317 312 307 303 300 297 294 291 289 286 281 273 262 257 257 257
172 194 182 159 149 139 126 118 110 105 99 91 91 96 107 112 110 110 106 101 99 96 94 93 90 86 83 81 80 80 79 76 75 74 74 75 71 47 34 35 32 23 21 25 26 19 14 14 15 10 5 9 12 12 13 13 11 7 2 357 356 356 353 350 347 341 335 329 322 317 312 307 303 298 295 293 291 288 287 284 279 270 261 256 253
158 176 156 144 139 131 122 117 110 105 102 98 102 112 117 116 114 113 108 104 102 99 95 92 89 85 84 83 83 81 79 78 75 73 71 71 74 64 40 37 35 30 32 31 27 20 16 17 16 10 8 10 12 13 12 12 10 5 359 357 359 357 352 349 346 343 343 339 330 321 314 310 305 300 295 291 289 287 286 284 281 276 267 258 252
152 156 145 138 135 129 120 116 114 111 107 108 117 121 119 117 116 114 110 107 104 100 94 90 88 87 88 86 85 83 80 78 75 73 71 67 68 65 46 34 38 42 42 32 27 21 17 17 14 12 14 14 15 15 13 13 11 3 360 1 360 355 350 346 342 344 348 346 341 333 324 316 310 305 300 295 291 288 287 285 282 278 271 262 255
147 144 139 137 134 128 122 120 118 115 114 119 124 124 120 118 118 115 111 108 104 99 94 91 91 90 91 89 86 84 80 79 75 73 71 66 64 62 55 48 38 38 41 34 29 22 19 17 13 16 18 17 18 17 14 14 11 4 2 3 1 356 349 344 343 346 345 343 343 342 336 328 319 311 305 301 296 291 289 287 285 281 276 269 260
142 141 140 140 135 128 127 126 123 120 122 127 126 124 122 122 121 116 111 108 103 99 96 95 94 92 92 90 87 84 80 78 75 72 70 66 64 61 58 56 45 31 29 30 27 21 20 20 16 18 20 19 18 18 17 15 10 6 5 4 3 357 348 346 348 345 339 338 343 344 342 337 328 318 310 305 301 294 290 288 286 284 281 276 267
139 143 145 141 134 130 131 128 127 127 128 130 128 126 127 126 122 115 111 109 104 101 100 98 97 95 93 90 86 84 80 77 74 71 70 66 63 60 57 56 53 42 29 25 21 18 22 23 19 19 22 21 20 20 20 16 11 8 7 7 3 353 348 350 348 339 334 338 343 344 343 340 334 326 315 308 303 297 291 286 285 283 281 278 272
140 146 147 141 135 133 133 130 132 134 133 135 132 129 131 127 121 115 112 109 106 104 104 102 100 96 93 90 87 84 80 77 74 70 69 66 63 60 57 53 53 52 43 29 18 17 20 24 22 20 21 22 22 22 21 16 12 10 10 7 357 347 348 350 342 334 332 337 344 345 342 341 339 333 324 313 306 300 294 287 284 282 280 277 275
147 151 146 141 136 134 135 135 138 139 139 139 135 132 132 127 120 116 112 111 109 108 107 105 101 97 94 91 88 85 81 78 75 71 69 67 64 61 58 53 51 52 50 38 16 12 14 18 20 19 19 22 22 20 19 16 12 9 10 5 351 345 349 344 338 334 332 336 342 343 342 341 340 337 331 323 313 305 297 290 283 280 280 278 276
154 154 148 141 138 139 141 142 144 145 144 142 136 134 133 127 121 117 116 116 114 111 110 106 102 98 94 91 88 86 83 79 75 72 70 67 64 60 58 55 50 49 49 42 21 9 12 14 13 10 14 20 19 14 13 15 14 10 8 1 349 347 348 342 341 336 330 336 342 342 341 340 338 336 332 328 323 315 305 295 285 279 277 277 275
158 158 152 145 143 145 146 149 149 147 147 143 136 135 134 128 124 121 120 120 117 113 111 107 104 101 96 93 90 86 84 80 76 73 70 66 64 60 58 54 49 46 46 43 27 11 13 16 14 11 12 16 13 5 4 11 15 12 4 355 351 351 347 343 343 336 330 339 344 342 340 338 337 335 333 331 329 324 316 305 293 283 277 275 275
163 162 157 150 149 150 151 154 151 148 147 142 137 137 135 130 127 126 124 123 120 116 112 108 104 102 99 95 92 87 84 81 77 72 69 66 62 59 56 52 48 44 42 41 30 13 9 11 12 11 11 13 9 359 359 7 13 12 3 355 353 352 348 345 344 338 336 343 345 343 340 338 336 335 334 333 331 330 327 319 307 295 284 277 275
168 166 161 156 154 154 155 157 153 151 149 142 139 138 135 132 130 128 128 125 122 118 114 111 106 103 101 97 92 88 84 80 76 70 66 65 60 56 53 48 44 41 38 36 28 14 5 3 4 2 4 8 6 359 360 6 12 12 6 360 356 353 349 346 345 342 340 343 346 346 343 339 337 337 338 338 338 340 340 336 328 316 301 288 280
173 168 163 160 158 157 158 159 156 154 150 144 142 140 137 137 134 132 131 128 124 122 118 115 110 105 102 98 93 89 85 80 75 70 65 62 58 54 51 45 40 38 35 29 23 15 1 355 358 357 359 3 4 3 3 5 10 11 9 6 358 352 350 347 346 345 342 342 346 348 345 340 339 340 342 345 348 348 346 343 338 331 320 304 290
175 171 166 163 162 161 160 160 158 155 151 146 144 143 141 140 138 136 135 131 127 125 121 117 113 109 104 99 95 91 85 80 75 70 65 61 57 52 49 45 39 37 34 28 24 17 3 354 355 357 359 0 3 8 8 7 7 7 10 11 3 351 349 348 347 346 345 344 346 348 346 343 341 341 343 348 351 350 347 344 340 336 329 318 303
175 174 170 165 164 163 161 162 161 157 153 149 147 146 144 143 142 140 137 134 132 128 124 120 115 110 106 101 97 92 86 81 76 70 64 60 56 50 47 45 40 38 35 30 25 17 5 0 357 357 360 360 3 8 9 10 9 5 7 10 5 354 350 349 347 346 347 347 347 348 348 348 346 342 342 347 349 349 349 350 346 336 328 323 315
175 175 172 169 166 164 163 164 163 159 156 153 151 150 148 146 145 143 141 138 135 131 126 122 117 112 108 103 98 93 87 81 75 68 63 60 55 47 43 43 40 38 35 30 25 17 6 4 1 359 359 360 3 7 9 12 13 9 6 2 357 353 350 349 349 347 346 348 350 350 349 351 352 348 346 349 348 348 350 352 345 329 322 323 320
176 176 174 172 169 166 165 166 166 164 160 156 155 153 151 149 147 145 143 140 137 132 127 122 118 113 110 105 99 93 87 82 76 68 61 59 55 47 41 40 38 36 35 30 22 17 10 5 4 1 358 360 3 6 9 12 12 11 6 358 350 349 349 349 351 350 348 348 352 353 351 353 357 356 355 352 347 347 349 345 335 326 322 324 322
177 177 176 174 172 169 168 169 169 166 163 160 159 156 153 151 149 147 144 141 137 132 127 123 118 114 110 105 99 93 87 81 74 67 61 57 54 48 41 39 37 35 34 32 24 18 12 6 5 3 360 0 2 4 7 11 12 9 5 359 352 350 350 352 353 354 352 348 350 353 354 354 356 357 359 355 348 348 350 344 335 330 327 326 323
179 177 176 176 175 173 171 171 172 169 167 165 162 159 155 153 151 149 146 142 138 133 128 124 119 115 111 103 95 89 84 78 72 65 60 55 51 47 41 38 35 34 33 32 27 23 16 8 5 3 1 1 2 2 5 10 14 13 7 -0 355 352 353 355 355 355 355 352 350 352 355 354 353 354 356 356 354 353 351 348 340 333 331 328 325
180 178 178 177 176 175 174 175 175 173 169 165 162 160 157 155 152 151 149 144 140 136 131 126 122 118 111 103 96 88 81 76 71 64 58 54 50 45 40 36 33 31 31 29 27 25 22 13 5 4 3 1 1 3 6 10 14 16 11 2 357 355 356 358 356 354 356 355 351 353 357 357 356 356 355 358 2 360 353 351 347 342 340 336 330
181 180 181 180 179 178 178 178 177 174 169 165 163 161 158 157 154 151 150 147 143 140 136 132 127 121 113 106 100 92 84 78 72 65 56 50 47 44 40 38 34 31 29 27 25 24 24 18 7 4 5 4 2 4 8 11 12 15 16 8 1 358 357 358 355 352 355 356 355 356 360 360 2 2 358 -0 6 5 0 357 354 353 351 346 342
183 183 183 182 181 180 180 180 178 176 172 168 165 161 159 159 155 150 151 151 147 145 144 140 134 129 122 115 108 99 92 83 76 72 60 49 45 41 37 35 32 30 28 26 24 22 23 20 12 7 7 7 6 7 11 12 11 14 17 10 2 358 356 357 355 352 354 356 356 359 360 0 7 11 7 5 8 9 8 7 5 3 1 359 356
186 186 185 182 181 181 183 183 181 180 176 171 168 163 160 161 157 153 155 156 153 152 151 146 141 137 131 126 122 113 103 92 82 78 69 59 52 46 41 35 30 27 24 23 22 20 21 20 16 13 12 11 10 9 12 13 12 15 15 6 1 359 354 354 354 353 356 357 359 2 0 358 6 13 12 12 13 13 14 15 15 12 9 11 11
188 187 185 182 180 181 184 185 185 184 179 174 170 164 161 160 158 157 157 158 157 157 155 151 145 140 136 135 133 125 116 106 92 83 74 68 62 54 49 40 32 28 22 20 21 19 18 18 16 16 15 13 11 11 14 13 11 16 16 3 2 2 355 352 355 358 359 357 0 5 3 357 2 11 15 19 18 17 18 18 20 22 20 21 23
189 187 185 183 180 181 184 185 188 189 183 177 171 165 162 160 158 158 158 159 161 161 160 156 150 146 145 145 142 135 129 122 105 92 77 70 67 58 50 42 33 26 20 20 21 19 18 16 15 15 15 14 13 13 15 13 10 16 16 4 3 3 357 355 358 1 2 358 1 6 2 357 360 5 14 23 23 19 20 22 22 25 27 29 32
189 187 185 183 181 182 182 182 187 192 187 179 172 166 163 162 160 159 159 161 164 165 164 160 154 154 155 154 152 145 140 135 117 100 79 69 69 60 51 45 36 27 21 19 19 17 16 14 13 13 13 14 15 15 15 13 11 15 15 7 4 0 357 358 358 360 3 1 3 5 359 357 360 358 9 23 26 21 22 24 24 26 29 33 37
190 188 187 184 181 181 181 179 185 193 190 181 176 171 167 166 164 160 159 165 167 167 168 165 159 160 163 163 160 152 148 146 129 107 81 64 62 54 44 37 31 24 20 18 15 12 11 11 12 14 12 12 13 13 13 13 13 16 15 9 6 1 358 358 356 358 3 2 6 9 -0 357 2 359 3 17 25 27 26 25 25 28 29 32 37
191 189 187 184 180 180 179 178 184 193 193 185 180 176 172 172 168 160 158 170 171 167 169 168 164 165 170 172 168 159 157 154 137 115 67 48 48 43 39 33 26 20 17 15 10 8 9 10 10 10 7 7 7 5 5 8 11 15 15 10 6 1 358 357 356 360 2 1 8 13 7 359 4 5 1 4 14 23 25 25 26 28 29 31 34
Height
1569 1569 1570 1570 1570 1571 1570 1570 1570 1570 1570 1571 1571 1571 1572 1572 1572 1572 1572 1572 1571 1570 1570 1569 1569 1568 1568 1567 1567 1566 1565 1564 1563 1563 1563 1562 1561 1559 1558 1557 1556 1556 1556 1555 1555 1554 1554 1553 1552 1552 1551 1550 1549 1548 1547 1546 1545 1544 1543 1542 1540 1540 1539 1538 1537 1537 1537 1536 1536 1535 1534 1534 1533 1532 1531 1530 1529 1528 1528 1528 1528 1528 1528 1528 1528
1569 1569 1570 1570 1571 1571 1570 1570 1570 1570 1570 1570 1570 1570 1571 1571 1571 1572 1572 1572 1571 1570 1569 1569 1569 1569 1567 1567 1566 1565 1564 1563 1563 1562 1562 1562 1561 1558 1557 1556 1556 1555 1555 1554 1554 1553 1553 1552 1551 1551 1550 1549 1548 1547 1546 1545 1544 1543 1542 1541 1540 1538 1538 1537 1536 1536 1535 1535 1534 1533 1533 1532 1532 1531 1530 1529 1528 1528 1527 1527 1526 1526 1526 1526 1526
1569 1569 1570 1571 1571 1571 1570 1570 1570 1570 1570 1570 1570 1570 1570 1570 1570 1571 1571 1571 1570 1569 1569 1569 1569 1568 1567 1566 1565 1564 1564 1563 1562 1562 1561 1561 1561 1559 1557 1556 1555 1555 1554 1554 1553 1552 1552 1551 1550 1550 1549 1548 1547 1546 1545 1544 1543 1542 1541 1540 1539 1537 1536 1536 1535 1534 1533 1533 1532 1532 1532 1531 1530 1530 1529 1528 1528 1527 1526 1525 1525 1525 1525 1525 1525
1569 1569 1569 1570 1570 1570 1570 1570 1570 1570 1570 1570 1570 1569 1569 1569 1569 1570 1570 1570 1570 1569 1569 1568 1568 1567 1566 1566 1565 1564 1564 1563 1562 1561 1561 1561 1560 1559 1558 1556 1555 1555 1554 1553 1552 1551 1551 1550 1549 1549 1548 1548 1547 1546 1545 1544 1543 1541 1540 1539 1538 1536 1535 1534 1533 1533 1532 1531 1531 1530 1530 1530 1528 1528 1527 1527 1526 1526 1525 1524 1523 1523 1523 1523 1523
1569 1569 1569 1570 1570 1570 1570 1570 1570 1570 1570 1570 1569 1569 1569 1568 1568 1568 1569 1569 1569 1569 1569 1568 1568 1567 1566 1565 1564 1564 1563 1562 1561 1561 1561 1560 1560 1559 1558 1557 1556 1555 1554 1553 1552 1551 1550 1549 1549 1548 1547 1547 1546 1545 1544 1543 1542 1540 1539 1538 1537 1536 1534 1533 1532 1532 1531 1530 1529 1529 1528 1527 1526 1526 1526 1526 1525 1524 1524 1523 1522 1521 1521 1521 1521
1568 1568 1569 1569 1569 1570 1570 1569 1569 1569 1569 1569 1569 1569 1569 1568 1568 1568 1568 1568 1569 1568 1568 1568 1567 1567 1566 1565 1565 1564 1562 1562 1561 1560 1560 1559 1559 1558 1558 1557 1556 1556 1554 1553 1551 1550 1549 1549 1548 1547 1546 1546 1545 1544 1543 1542 1541 1539 1538 1537 1536 1535 1534 1532 1531 1530 1529 1529 1528 1527 1527 1526 1525 1525 1524 1524 1523 1522 1522 1521 1521 1520 1519 1519 1519
1568 1568 1568 1568 1569 1569 1569 1569 1569 1569 1569 1569 1569 1568 1568 1568 1568 1567 1567 1567 1568 1568 1568 1567 1566 1566 1565 1564 1564 1563 1562 1561 1561 1560 1560 1559 1558 1557 1557 1556 1556 1556 1555 1554 1552 1550 1549 1548 1547 1546 1545 1544 1543 1542 1542 1541 1540 1538 1537 1536 1534 1533 1532 1531 1530 1529 1528 1527 1526 1525 1525 1524 1523 1522 1521 1521 1521 1520 1520 1519 1519 1519 1518 1517 1517
1567 1568 1568 1568 1569 1569 1569 1569 1569 1569 1569 1568 1568 1568 1568 1567 1567 1567 1567 1567 1567 1567 1567 1566 1565 1565 1564 1563 1563 1562 1562 1561 1560 1560 1559 1558 1557 1556 1556 1556 1555 1555 1554 1554 1552 1550 1549 1548 1546 1545 1544 1543 1542 1541 1540 1539 1538 1537 1536 1534 1533 1531 1531 1530 1529 1527 1526 1525 1524 1524 1523 1522 1521 1520 1520 1519 1518 1518 1517 1517 1516 1516 1516 1516 1515
1566 1567 1567 1568 1568 1568 1568 1568 1568 1568 1568 1568 1568 1567 1567 1567 1567 1566 1566 1566 1566 1566 1566 1565 1565 1564 1563 1562 1562 1562 1562 1561 1560 1560 1559 1558 1557 1556 1555 1555 1555 1554 1553 1553 1552 1550 1548 1547 1546 1544 1543 1542 1541 1540 1538 1537 1536 1535 1534 1533 1531 1530 1529 1528 1527 1526 1524 1523 1523 1522 1520 1519 1519 1518 1518 1517 1516 1515 1515 1514 1514 1514 1514 1514 1513
1565 1566 1567 1567 1568 1568 1568 1568 1567 1567 1567 1567 1567 1567 1566 1567 1567 1566 1565 1565 1565 1565 1565 1564 1563 1563 1563 1562 1562 1562 1561 1560 1560 1559 1558 1557 1556 1556 1555 1554 1554 1553 1552 1551 1550 1549 1548 1547 1545 1543 1542 1540 1539 1538 1537 1535 1534 1533 1532 1531 1529 1528 1527 1526 1525 1524 1523 1521 1521 1520 1518 1517 1516 1516 1516 1515 1514 1513 1512 1511 1511 1511 1511 1511 1511
1564 1565 1566 1567 1567 1567 1567 1567 1567 1567 1567 1567 1567 1566 1566 1566 1566 1566 1565 1564 1564 1563 1563 1563 1562 1562 1562 1562 1562 1561 1561 1560 1560 1559 1558 1557 1556 1555 1555 1554 1552 1552 1551 1550 1548 1547 1546 1545 1544 1542 1540 1539 1538 1536 1535 1534 1532 1531 1530 1529 1527 1526 1524 1523 1522 1521 1520 1519 1518 1517 1516 1515 1514 1513 1512 1512 1511 1511 1510 1509 1509 1508 1508 1508 1508
1563 1564 1565 1566 1566 1566 1566 1567 1566 1566 1566 1566 1566 1566 1565 1565 1565 1566 1565 1564 1563 1563 1562 1562 1562 1561 1561 1561 1561 1560 1560 1560 1559 1558 1557 1556 1556 1555 1554 1553 1551 1550 1549 1548 1547 1546 1545 1544 1542 1541 1539 1538 1536 1535 1533 1532 1531 1529 1528 1527 1526 1524 1522 1521 1520 1518 1517 1516 1515 1514 1514 1513 1512 1511 1510 1509 1509 1508 1507 1507 1507 1506 1506 1505 1505
1562 1563 1564 1565 1565 1565 1566 1566 1565 1565 1565 1565 1565 1565 1564 1565 1565 1565 1565 1564 1563 1562 1562 1561 1562 1562 1561 1561 1561 1560 1560 1560 1559 1558 1557 1556 1555 1554 1553 1552 1550 1549 1548 1546 1545 1544 1544 1542 1541 1540 1538 1537 1535 1534 1532 1531 1529 1528 1526 1525 1523 1522 1520 1519 1517 1516 1515 1513 1512 1512 1511 1511 1510 1508 1507 1507 1506 1506 1505 1504 1504 1504 1503 1503 1503
1561 1562 1564 1564 1565 1565 1565 1565 1564 1564 1564 1564 1564 1564 1564 1565 1565 1565 1565 1564 1563 1562 1561 1561 1561 1561 1561 1561 1561 1561 1560 1560 1558 1557 1556 1555 1555 1553 1552 1551 1550 1548 1547 1546 1545 1544 1543 1541 1540 1539 1537 1536 1534 1533 1532 1530 1528 1527 1525 1523 1521 1520 1518 1516 1515 1514 1512 1511 1510 1509 1508 1508 1507 1506 1505 1504 1504 1503 1502 1501 1501 1501 1500 1500 1500
1561 1562 1563 1564 1564 1564 1564 1564 1564 1564 1563 1563 1563 1563 1564 1564 1564 1564 1564 1563 1562 1561 1561 1560 1560 1560 1561 1561 1561 1561 1560 1560 1559 1557 1556 1556 1555 1553 1552 1551 1550 1549 1548 1547 1546 1544 1543 1541 1540 1538 1536 1535 1533 1532 1530 1529 1527 1525 1523 1522 1520 1518 1516 1514 1512 1511 1509 1508 1507 1506 1505 1505 1504 1503 1503 1502 1501 1500 1499 1498 1498 1498 1498 1497 1496
1560 1561 1562 1563 1563 1563 1563 1562 1562 1563 1563 1563 1563 1563 1563 1563 1564 1563 1563 1563 1562 1561 1560 1560 1559 1559 1560 1560 1560 1559 1560 1561 1560 1559 1557 1556 1555 1553 1552 1551 1550 1549 1548 1547 1546 1544 1543 1541 1539 1537 1535 1534 1532 1531 1529 1527 1526 1524 1522 1520 1518 1517 1515 1513 1511 1509 1507 1505 1504 1503 1502 1501 1500 1500 1499 1499 1498 1497 1496 1495 1495 1495 1495 1494 1494
1560 1561 1561 1562 1562 1561 1561 1561 1561 1562 1562 1562 1562 1563 1563 1563 1563 1563 1562 1562 1561 1561 1560 1559 1559 1558 1559 1559 1559 1559 1560 1560 1560 1560 1559 1557 1555 1554 1552 1551 1550 1549 1547 1546 1545 1544 1542 1540 1539 1537 1535 1533 1531 1530 1528 1526 1524 1522 1521 1518 1517 1515 1513 1511 1509 1507 1505 1503 1501 1500 1498 1497 1496 1496 1496 1496 1495 1494 1493 1492 1492 1492 1491 1492 1492
1560 1560 1561 1561 1561 1561 1560 1561 1561 1561 1561 1562 1562 1562 1562 1562 1562 1562 1561 1561 1561 1560 1560 1559 1559 1559 1558 1558 1558 1559 1559 1559 1559 1560 1559 1557 1556 1554 1553 1551 1550 1549 1548 1547 1546 1544 1543 1541 1539 1537 1535 1533 1532 1530 1528 1526 1524 1522 1520 1517 1515 1513 1511 1509 1507 1505 1504 1502 1499 1497 1495 1494 1493 1492 1492 1492 1491 1490 1489 1489 1489 1489 1488 1488 1489
1560 1560 1560 1560 1560 1560 1560 1560 1560 1560 1561 1561 1561 1562 1562 1562 1561 1561 1561 1561 1560 1560 1560 1559 1559 1559 1559 1559 1558 1558 1558 1558 1559 1559 1560 1559 1557 1555 1553 1552 1551 1550 1549 1548 1547 1546 1544 1542 1541 1538 1536 1534 1532 1530 1528 1525 1523 1521 1519 1516 1514 1512 1509 1507 1505 1503 1502 1500 1498 1496 1493 1492 1490 1489 1488 1487 1487 1486 1486 1486 1485 1486 1485 1485 1485
1560 1559 1559 1559 1559 1559 1559 1559 1559 1560 1560 1561 1561 1561 1561 1561 1560 1560 1560 1560 1560 1560 1560 1560 1559 1559 1559 1559 1559 1558 1558 1558 1557 1558 1559 1560 1559 1557 1555 1553 1553 1552 1551 1549 1548 1546 1545 1543 1541 1539 1537 1534 1532 1530 1528 1525 1523 1520 1518 1515 1513 1510 1508 1505 1503 1501 1499 1497 1496 1494 1491 1489 1488 1486 1485 1483 1482 1482 1482 1482 1482 1482 1482 1482 1482
1559 1558 1558 1558 1558 1558 1558 1559 1559 1559 1560 1560 1560 1560 1560 1560 1560 1560 1560 1560 1560 1560 1560 1560 1560 1559 1559 1559 1559 1559 1558 1558 1557 1557 1558 1559 1559 1558 1556 1555 1554 1553 1551 1549 1547 1546 1545 1543 1541 1539 1537 1535 1532 1530 1528 1525 1522 1520 1517 1515 1512 1509 1506 1504 1501 1499 1496 1495 1493 1491 1489 1487 1485 1483 1482 1480 1478 1478 1478 1478 1478 1478 1478 1478 1478
1557 1557 1557 1557 1557 1557 1558 1558 1558 1559 1559 1560 1560 1560 1560 1560 1560 1560 1560 1560 1560 1560 1560 1560 1560 1560 1560 1560 1559 1559 1559 1559 1558 1558 1558 1558 1558 1558 1557 1556 1555 1553 1550 1548 1547 1546 1545 1543 1541 1539 1537 1535 1532 1530 1527 1525 1522 1519 1517 1514 1511 1508 1505 1503 1500 1497 1495 1492 1490 1488 1486 1485 1483 1481 1479 1477 1475 1474 1473 1474 1474 1474 1474 1474 1474
1556 1556 1556 1556 1556 1557 1557 1558 1558 1558 1559 1559 1559 1559 1559 1560 1560 1560 1560 1560 1560 1560 1560 1561 1561 1561 1560 1560 1560 1560 1560 1559 1558 1558 1558 1557 1558 1558 1557 1556 1556 1554 1551 1549 1548 1548 1547 1545 1542 1540 1538 1535 1532 1529 1527 1523 1521 1518 1515 1512 1509 1506 1504 1501 1499 1496 1493 1490 1488 1486 1484 1482 1480 1478 1476 1474 1472 1470 1469 1469 1470 1470 1470 1470 1470
1555 1554 1555 1555 1555 1556 1557 1557 1558 1558 1559 1559 1559 1559 1560 1560 1560 1560 1560 1560 1561 1561 1561 1561 1561 1561 1561 1561 1561 1561 1560 1560 1559 1558 1558 1557 1558 1558 1557 1556 1556 1555 1553 1551 1550 1550 1548 1545 1543 1541 1538 1535 1532 1529 1526 1523 1520 1517 1514 1511 1507 1503 1501 1499 1496 1494 1491 1489 1486 1483 1481 1478 1476 1475 1473 1471 1469 1467 1465 1465 1465 1465 1466 1466 1466
1553 1553 1554 1554 1555 1556 1557 1557 1558 1558 1558 1558 1559 1559 1560 1560 1560 1560 1561 1561 1561 1562 1562 1562 1562 1562 1562 1562 1562 1561 1561 1560 1560 1559 1558 1558 1557 1558 1557 1556 1556 1555 1554 1553 1552 1551 1548 1545 1544 1542 1539 1535 1532 1529 1526 1522 1519 1516 1513 1509 1505 1502 1499 1496 1494 1492 1489 1486 1484 1481 1478 1476 1473 1471 1469 1467 1465 1463 1462 1461 1460 1461 1461 1461 1461
1552 1552 1552 1553 1554 1556 1556 1557 1557 1558 1558 1558 1559 1560 1560 1560 1561 1561 1561 1562 1562 1562 1562 1563 1563 1562 1563 1563 1562 1562 1561 1561 1560 1560 1559 1559 1557 1557 1557 1557 1556 1556 1555 1554 1553 1551 1548 1546 1545 1542 1539 1536 1532 1529 1526 1522 1519 1516 1513 1508 1504 1502 1499 1496 1493 1490 1487 1484 1482 1479 1476 1473 1470 1468 1465 1464 1462 1460 1458 1457 1456 1456 1456 1457 1457
1550 1551 1552 1553 1554 1555 1556 1557 1557 1557 1558 1558 1559 1560 1560 1561 1561 1562 1562 1562 1563 1563 1563 1563 1563 1563 1563 1563 1563 1563 1562 1561 1561 1561 1560 1559 1558 1557 1557 1557 1557 1556 1555 1555 1553 1552 1549 1547 1546 1542 1539 1536 1533 1529 1526 1522 1520 1517 1512 1508 1505 1502 1498 1495 1492 1488 1485 1483 1480 1477 1474 1471 1468 1465 1462 1460 1458 1456 1455 1454 1453 1452 1451 1452 1453
1549 1550 1551 1553 1554 1555 1556 1557 1557 1557 1558 1559 1559 1560 1561 1561 1562 1562 1562 1563 1563 1563 1564 1564 1564 1564 1564 1564 1564 1563 1563 1562 1562 1561 1560 1559 1558 1557 1557 1556 1557 1556 1556 1555 1554 1552 1550 1547 1545 1543 1539 1537 1533 1530 1526 1523 1520 1517 1512 1509 1505 1501 1498 1495 1491 1487 1485 1482 1479 1476 1472 1468 1465 1462 1459 1457 1455 1453 1451 1450 1448 1447 1447 1446 1447
1549 1550 1551 1553 1554 1555 1556 1556 1557 1557 1558 1559 1559 1560 1561 1562 1562 1563 1563 1563 1564 1564 1564 1565 1565 1565 1565 1564 1564 1564 1563 1563 1562 1561 1560 1559 1559 1558 1557 1556 1556 1556 1556 1555 1554 1553 1550 1547 1545 1543 1540 1537 1534 1531 1527 1524 1521 1516 1512 1508 1504 1501 1497 1493 1490 1488 1485 1482 1478 1475 1471 1467 1463 1460 1457 1454 1452 1450 1448 1446 1444 1443 1442 1441 1441
1549 1550 1551 1552 1553 1555 1555 1556 1556 1557 1558 1559 1560 1561 1562 1562 1563 1563 1563 1564 1564 1564 1565 1565 1565 1566 1565 1565 1564 1564 1564 1563 1562 1561 1560 1560 1559 1559 1558 1557 1557 1557 1556 1557 1556 1554 1551 1549 1547 1544 1541 1538 1534 1531 1527 1524 1521 1516 1511 1507 1504 1500 1496 1493 1491 1488 1485 1481 1477 1473 1469 1465 1461 1457 1454 1451 1448 1446 1445 1443 1441 1439 1438 1437 1436
1549 1550 1551 1552 1553 1554 1555 1556 1556 1557 1558 1559 1560 1561 1562 1563 1563 1563 1564 1565 1565 1565 1566 1566 1566 1566 1566 1565 1565 1564 1564 1563 1563 1562 1561 1561 1560 1560 1559 1559 1558 1557 1557 1557 1557 1555 1552 1550 1547 1545 1542 1538 1534 1531 1528 1525 1521 1516 1511 1507 1504 1500 1496 1494 1492 1489 1484 1480 1476 1472 1467 1463 1458 1454 1451 1448 1445 1443 1441 1440 1438 1436 1435 1433 1432
1549 1550 1551 1552 1553 1554 1555 1556 1556 1557 1559 1559 1560 1561 1562 1563 1563 1564 1565 1566 1566 1566 1567 1567 1567 1567 1566 1566 1565 1565 1564 1564 1563 1563 1563 1562 1561 1561 1560 1560 1559 1558 1557 1557 1557 1555 1553 1550 1547 1545 1542 1538 1534 1531 1528 1524 1520 1516 1511 1508 1504 1500 1497 1495 1492 1488 1484 1479 1475 1470 1465 1460 1456 1452 1448 1445 1443 1440 1438 1436 1434 1433 1431 1429 1428
1548 1550 1551 1551 1553 1554 1555 1556 1556 1558 1559 1559 1561 1562 1562 1563 1563 1564 1565 1566 1567 1567 1567 1567 1567 1567 1567 1567 1566 1565 1565 1564 1564 1564 1563 1562 1562 1562 1561 1561 1560 1559 1557 1556 1556 1555 1552 1550 1547 1545 1542 1538 1534 1532 1528 1524 1519 1515 1511 1508 1504 1500 1497 1495 1492 1488 1483 1478 1473 1468 1463 1458 1454 1450 1446 1443 1440 1437 1434 1432 1430 1429 1427 1426 1424
1548 1549 1550 1551 1552 1554 1554 1555 1556 1558 1559 1560 1561 1562 1563 1563 1564 1565 1566 1567 1567 1567 1568 1568 1568 1567 1567 1567 1567 1566 1565 1565 1565 1565 1564 1563 1563 1563 1562 1561 1560 1559 1558 1556 1555 1554 1552 1549 1547 1544 1541 1538 1534 1532 1529 1524 1519 1514 1511 1509 1504 1500 1497 1495 1491 1487 1481 1476 1471 1466 1461 1456 1452 1448 1444 1440 1437 1434 1431 1429 1427 1425 1424 1423 1421
1548 1549 1550 1551 1552 1553 1554 1555 1556 1557 1559 1560 1561 1562 1563 1564 1565 1565 1566 1567 1568 1568 1568 1568 1568 1568 1568 1568 1567 1567 1566 1566 1565 1565 1564 1564 1564 1563 1562 1561 1560 1559 1557 1555 1554 1553 1551 1549 1546 1544 1541 1538 1535 1532 1529 1524 1519 1515 1511 1508 1504 1500 1497 1494 1491 1486 1480 1475 1470 1464 1459 1455 1450 1446 1442 1439 1436 1433 1430 1427 1425 1423 1422 1420 1418
1547 1549 1550 1551 1552 1553 1554 1555 1556 1557 1559 1559 1561 1562 1563 1564 1565 1566 1567 1567 1568 1568 1569 1569 1569 1569 1568 1568 1568 1567 1567 1566 1566 1566 1565 1565 1564 1563 1562 1562 1561 1559 1557 1555 1554 1553 1551 1549 1547 1544 1541 1538 1535 1532 1529 1524 1520 1516 1512 1508 1504 1501 1497 1494 1490 1485 1480 1475 1469 1463 1458 1453 1449 1445 1441 1438 1435 1432 1429 1426 1424 1421 1419 1417 1415
1547 1548 1549 1550 1552 1552 1554 1555 1556 1557 1559 1560 1561 1562 1563 1565 1566 1566 1567 1568 1568 1568 1569 1569 1569 1569 1569 1569 1568 1568 1567 1567 1567 1567 1566 1565 1565 1564 1563 1562 1561 1559 1557 1556 1554 1553 1551 1549 1547 1545 1542 1539 1536 1532 1528 1524 1519 1516 1512 1508 1504 1501 1498 1493 1490 1485 1479 1474 1468 1463 1457 1453 1448 1444 1440 1437 1434 1431 1428 1425 1422 1419 1417 1414 1412
1547 1548 1549 1550 1551 1552 1553 1555 1556 1557 1558 1560 1561 1563 1564 1565 1566 1567 1567 1568 1568 1569 1569 1569 1569 1569 1569 1569 1569 1568 1568 1567 1567 1567 1567 1566 1565 1564 1563 1562 1561 1559 1557 1556 1554 1552 1551 1550 1548 1545 1542 1539 1536 1532 1528 1524 1519 1515 1511 1506 1503 1501 1498 1493 1489 1485 1480 1475 1469 1463 1458 1452 1447 1443 1439 1436 1433 1430 1427 1424 1421 1418 1414 1412 1410
1546 1547 1548 1549 1550 1551 1553 1554 1556 1557 1558 1560 1561 1563 1564 1565 1566 1567 1567 1568 1569 1569 1569 1569 1569 1569 1569 1569 1569 1569 1568 1568 1568 1568 1567 1566 1565 1564 1563 1562 1560 1559 1557 1555 1554 1552 1551 1550 1548 1546 1543 1540 1536 1532 1528 1525 1521 1516 1511 1506 1502 1500 1498 1494 1490 1485 1480 1475 1469 1464 1459 1453 1447 1443 1439 1435 1432 1429 1425 1423 1420 1416 1412 1409 1406
1545 1547 1548 1549 1550 1551 1552 1554 1555 1557 1558 1560 1562 1563 1565 1565 1566 1567 1568 1569 1569 1569 1569 1569 1569 1570 1570 1570 1569 1569 1569 1569 1568 1568 1567 1566 1565 1565 1563 1562 1560 1558 1557 1555 1554 1552 1551 1550 1548 1546 1543 1540 1536 1532 1528 1524 1519 1516 1512 1508 1504 1501 1498 1494 1491 1486 1481 1475 1469 1464 1459 1453 1447 1442 1438 1435 1432 1428 1425 1423 1419 1414 1410 1406 1403
1545 1546 1547 1548 1549 1550 1552 1553 1555 1557 1558 1560 1562 1563 1564 1566 1567 1568 1568 1569 1569 1569 1569 1569 1570 1570 1570 1570 1570 1569 1569 1569 1569 1568 1567 1566 1565 1565 1563 1562 1560 1558 1557 1555 1554 1553 1551 1550 1548 1546 1543 1540 1536 1532 1528 1524 1520 1516 1513 1510 1507 1503 1499 1496 1492 1488 1483 1477 1470 1464 1459 1453 1447 1443 1439 1435 1432 1428 1425 1422 1417 1411 1407 1403 1399
1544 1545 1546 1548 1549 1550 1551 1553 1554 1556 1558 1559 1561 1562 1564 1565 1567 1568 1568 1569 1569 1569 1570 1570 1570 1570 1570 1570 1570 1570 1569 1569 1569 1568 1567 1566 1565 1564 1563 1562 1560 1559 1556 1555 1554 1552 1551 1550 1548 1546 1543 1540 1537 1533 1529 1525 1522 1517 1514 1510 1507 1504 1501 1497 1493 1489 1485 1479 1472 1465 1460 1454 1449 1444 1440 1437 1432 1428 1425 1421 1415 1410 1405 1401 1397
1543 1544 1546 1547 1548 1549 1551 1552 1554 1555 1557 1559 1560 1562 1563 1564 1566 1567 1568 1568 1569 1569 1570 1570 1570 1570 1570 1570 1570 1570 1570 1569 1569 1568 1568 1567 1566 1565 1564 1562 1560 1558 1557 1555 1554 1552 1551 1550 1549 1546 1544 1541 1538 1535 1531 1527 1522 1518 1515 1512 1508 1504 1501 1498 1493 1489 1484 1479 1473 1467 1461 1456 1451 1446 1442 1438 1433 1429 1425 1420 1414 1409 1404 1399 1395
1542 1543 1545 1546 1547 1548 1550 1551 1553 1555 1556 1558 1560 1561 1563 1564 1565 1567 1568 1568 1569 1569 1569 1570 1570 1570 1570 1570 1570 1570 1570 1570 1569 1569 1568 1567 1566 1565 1564 1562 1561 1559 1557 1556 1554 1552 1551 1550 1549 1547 1544 1541 1538 1535 1531 1527 1523 1519 1516 1513 1509 1506 1503 1500 1496 1491 1485 1480 1476 1469 1463 1458 1453 1448 1444 1440 1435 1430 1426 1420 1414 1408 1403 1398 1393
1541 1543 1544 1545 1547 1548 1550 1551 1553 1554 1555 1557 1559 1560 1562 1563 1564 1566 1567 1568 1568 1569 1569 1569 1570 1570 1570 1571 1571 1571 1571 1570 1570 1569 1568 1568 1566 1565 1564 1562 1561 1559 1558 1556 1554 1553 1551 1549 1548 1547 1544 1541 1539 1536 1532 1528 1524 1520 1516 1513 1511 1507 1504 1501 1498 1493 1487 1482 1477 1470 1464 1460 1455 1450 1447 1442 1437 1432 1427 1420 1414 1408 1402 1397 1392
1540 1542 1543 1545 1547 1548 1550 1552 1553 1554 1555 1556 1558 1559 1560 1562 1563 1564 1566 1567 1568 1569 1569 1569 1569 1570 1570 1571 1571 1571 1571 1571 1570 1569 1569 1568 1567 1566 1564 1563 1561 1560 1558 1556 1555 1553 1551 1550 1548 1546 1544 1541 1539 1536 1533 1529 1526 1522 1517 1514 1512 1508 1506 1503 1500 1495 1491 1486 1480 1472 1467 1463 1458 1453 1449 1444 1439 1434 1428 1421 1414 1408 1402 1397 1391
1539 1541 1543 1545 1546 1548 1550 1552 1553 1554 1555 1556 1557 1558 1560 1561 1562 1563 1565 1566 1567 1568 1569 1569 1569 1569 1570 1571 1571 1571 1571 1571 1570 1570 1569 1568 1567 1566 1565 1564 1563 1561 1559 1558 1556 1554 1552 1550 1548 1546 1544 1542 1539 1536 1533 1530 1527 1523 1520 1518 1515 1510 1508 1505 1502 1497 1493 1489 1483 1475 1470 1466 1461 1456 1451 1447 1441 1436 1430 1423 1416 1410 1404 1398 1392
1538 1540 1542 1544 1546 1548 1550 1552 1554 1555 1555 1556 1557 1558 1559 1560 1561 1563 1564 1566 1567 1568 1568 1569 1569 1569 1570 1571 1571 1571 1571 1571 1570 1570 1569 1569 1567 1567 1566 1565 1564 1562 1561 1559 1557 1555 1552 1550 1549 1547 1544 1542 1540 1537 1533 1531 1528 1524 1521 1520 1516 1512 1509 1506 1502 1498 1495 1491 1485 1478 1473 1469 1463 1458 1454 1449 1443 1437 1432 1426 1419 1413 1407 1400 1394
1536 1539 1540 1542 1544 1546 1548 1550 1553 1555 1556 1556 1557 1558 1559 1559 1561 1562 1564 1565 1566 1567 1568 1568 1569 1569 1570 1570 1571 1571 1571 1571 1570 1570 1569 1569 1568 1567 1566 1565 1564 1563 1561 1559 1557 1555 1553 1551 1549 1547 1545 1543 1540 1537 1534 1532 1528 1524 1522 1520 1516 1513 1510 1507 1503 1499 1496 1493 1487 1481 1477 1473 1467 1461 1456 1450 1445 1440 1434 1428 1422 1416 1410 1403 1397
1535 1537 1539 1540 1543 1544 1546 1549 1552 1555 1556 1556 1556 1557 1558 1559 1560 1561 1563 1565 1565 1567 1567 1568 1569 1569 1570 1570 1570 1570 1570 1570 1570 1569 1569 1569 1568 1566 1566 1565 1564 1562 1561 1559 1557 1555 1553 1551 1549 1547 1545 1542 1540 1537 1535 1532 1529 1525 1523 1520 1517 1514 1512 1509 1505 1501 1498 1495 1489 1483 1479 1476 1470 1465 1458 1452 1447 1443 1438 1431 1425 1419 1412 1406 1400
1533 1535 1537 1539 1541 1543 1546 1548 1551 1554 1555 1555 1555 1556 1557 1558 1559 1560 1563 1564 1565 1566 1567 1568 1568 1569 1569 1570 1570 1570 1570 1570 1569 1569 1569 1568 1567 1566 1565 1564 1563 1562 1560 1558 1557 1555 1553 1551 1549 1547 1545 1543 1541 1538 1536 1533 1530 1527 1524 1521 1518 1516 1513 1510 1507 1503 1499 1496 1491 1485 1481 1477 1471 1467 1462 1455 1448 1443 1439 1435 1429 1422 1416 1411 1405